Wind_Speed
66 64 64 59 56 49 44 44 47 52 62 72 81 88 86 86 88 92 95 95 91 86 82 83 82 77 74 72 70 67 62 58 53 52 50 47 44 41 39 40 40 39 38 38 37
70 70 73 65 59 50 40 33 35 41 48 57 64 71 84 92 89 92 93 95 93 91 86 82 82 81 75 70 70 66 60 58 55 53 51 47 44 42 41 40 42 39 38 39 38
75 75 80 74 66 55 44 34 29 31 36 44 53 58 65 83 96 93 95 96 96 93 90 86 82 81 79 73 68 64 59 59 56 54 52 49 46 45 44 42 41 42 39 39 38
79 78 86 80 72 61 50 40 30 26 28 31 38 45 54 67 86 97 97 96 96 96 93 91 86 81 80 75 70 65 63 60 57 54 53 53 48 47 44 44 45 45 42 39 39
79 85 89 86 78 65 57 46 33 25 25 26 31 37 47 59 71 91 100 97 97 97 96 93 89 83 80 78 73 68 65 63 58 56 54 52 49 45 43 41 43 44 40 39 39
78 87 91 91 84 69 58 53 42 29 22 22 26 32 40 49 63 81 98 101 97 98 98 96 93 87 81 79 77 72 70 66 61 57 55 53 49 44 38 37 40 41 39 36 38
78 84 94 94 91 76 63 53 45 32 20 16 20 29 37 44 56 71 91 102 100 98 98 97 94 90 82 78 78 76 73 69 63 57 55 52 49 46 41 40 40 40 41 37 39
77 82 91 94 98 88 71 60 48 35 23 13 13 21 31 41 51 63 81 98 103 100 99 97 95 92 87 79 78 78 75 69 63 57 54 51 49 48 45 42 39 38 43 42 41
75 81 88 95 100 98 81 67 58 43 28 15 7 12 23 35 45 56 71 90 102 103 99 98 96 92 88 83 79 79 75 69 64 59 54 48 49 49 47 43 42 39 39 45 44
72 79 84 91 96 101 93 77 65 54 38 23 10 4 16 28 38 48 60 78 95 105 102 98 97 93 90 84 75 72 75 70 66 61 55 50 50 50 49 44 43 45 43 43 44
68 75 80 87 94 99 100 88 73 63 45 31 20 7 8 19 27 39 53 66 85 98 104 99 95 92 90 85 79 74 78 76 70 65 59 55 53 50 48 43 45 46 46 46 44
64 71 77 83 90 95 98 97 83 69 55 37 26 17 3 10 20 31 42 58 71 89 101 101 95 94 93 88 81 77 77 77 74 69 63 56 53 50 47 46 46 48 51 50 47
62 66 73 79 84 90 97 98 92 77 63 52 34 24 13 1 14 26 38 47 62 76 90 100 97 93 93 89 83 77 74 75 73 69 63 58 56 50 46 48 50 52 53 51 49
60 63 68 73 78 85 92 97 96 86 70 58 49 36 27 12 4 15 29 37 48 63 78 92 98 94 92 90 84 78 73 73 73 69 64 60 55 52 46 47 48 48 49 50 50
55 60 63 68 73 79 85 89 95 93 80 64 56 44 35 26 12 7 19 30 37 50 68 83 97 93 89 89 86 79 73 69 72 70 66 62 57 52 49 47 48 49 50 51 52
53 56 60 64 68 74 77 83 89 92 89 78 62 55 42 33 24 10 8 21 32 43 59 74 91 93 88 86 84 80 74 67 68 71 67 62 57 54 51 51 51 52 51 51 52
50 52 55 58 62 66 71 76 80 86 89 84 74 60 53 42 31 19 9 12 22 36 50 67 81 92 87 83 82 79 74 67 64 64 63 61 58 56 57 55 55 55 55 54 53
44 47 50 53 57 60 62 67 71 77 82 84 79 71 57 49 41 31 18 12 17 28 43 59 71 86 86 80 79 77 71 66 59 58 62 62 58 57 61 61 59 58 58 59 60
44 45 45 49 50 54 57 58 62 68 73 76 77 73 69 54 45 39 30 17 14 22 37 50 64 79 84 77 75 74 68 65 59 57 63 62 61 61 64 65 64 63 61 60 62
36 41 43 45 45 47 52 52 54 58 62 66 70 71 67 64 51 39 33 24 15 16 28 41 56 73 80 73 71 69 66 61 57 55 59 62 63 64 65 65 65 63 61 60 61
32 36 40 41 41 43 45 49 48 49 52 56 58 62 65 61 58 48 35 26 18 12 20 34 50 67 74 69 68 66 62 58 57 53 58 62 63 66 66 65 64 63 64 65 66
32 31 36 38 38 40 39 42 44 42 44 47 49 50 53 56 54 50 45 32 21 13 14 27 44 58 65 64 60 59 57 55 54 53 56 62 64 67 67 67 66 66 67 68 70
37 30 30 37 37 37 38 38 39 40 37 38 40 42 42 45 47 47 43 39 31 18 12 20 37 51 58 60 59 58 56 54 53 50 54 61 67 70 69 68 67 68 70 71 74
35 33 31 33 33 37 35 34 35 35 35 34 32 33 35 33 34 37 40 37 31 25 16 11 24 40 50 53 55 54 52 52 50 49 54 59 68 71 69 67 68 72 75 78 80
31 34 33 31 33 36 37 32 36 34 30 32 28 25 26 28 26 26 24 29 29 24 19 14 11 22 33 43 47 48 48 50 51 51 49 55 56 56 57 58 62 64 66 69 71
39 38 33 36 38 38 40 31 32 30 28 24 25 22 21 20 20 22 16 15 17 17 19 18 12 9 15 24 33 40 44 46 49 51 53 55 60 60 60 62 63 64 65 64 63
38 41 38 30 35 38 36 37 33 31 28 23 23 22 18 18 17 16 18 14 9 6 4 4 6 6 4 4 9 14 17 22 25 27 30 34 38 38 37 39 42 45 49 52 55
Wind_Direction
350 346 340 336 330 319 305 291 279 267 256 250 245 241 238 232 229 227 226 227 226 226 224 224 226 226 226 228 229 229 229 231 231 231 232 231 231 235 235 235 233 236 238 241 241
356 355 351 345 342 334 324 303 285 270 260 254 249 242 235 231 226 225 224 224 223 224 223 223 223 224 225 224 227 227 228 228 228 228 229 230 231 232 234 234 231 237 242 240 241
0 2 -0 353 351 347 339 326 303 277 264 253 248 244 233 227 224 222 221 221 221 221 221 222 222 222 223 222 222 222 221 222 225 226 227 228 229 231 230 232 236 238 241 241 241
3 3 4 1 357 353 349 339 325 295 270 255 246 238 232 225 221 218 218 218 218 218 219 219 220 221 220 221 220 219 218 219 223 224 224 226 229 231 234 235 236 238 240 244 242
5 6 8 7 4 360 353 350 343 314 286 261 245 235 227 222 218 215 215 215 215 216 217 218 219 218 218 218 218 215 217 218 220 222 224 227 227 228 235 239 239 240 244 246 245
3 6 10 10 9 6 0 355 352 341 309 274 242 232 223 218 214 214 213 213 214 214 215 216 217 218 217 216 216 214 216 217 219 220 222 226 226 226 231 238 238 243 245 248 247
4 6 10 13 13 11 7 4 355 354 333 293 256 225 220 216 214 210 212 211 212 213 214 214 215 216 216 216 215 215 216 217 218 219 221 224 226 225 226 231 234 240 240 245 250
3 5 9 15 15 14 13 10 9 3 353 325 276 233 219 214 213 211 209 211 211 211 212 212 213 214 215 215 215 215 217 216 218 221 222 223 223 224 225 230 235 238 239 244 250
3 4 9 13 17 16 16 16 15 14 10 356 312 239 223 214 211 211 208 209 211 210 211 211 211 212 213 213 214 215 216 218 218 219 223 223 226 225 226 229 234 238 246 246 248
3 4 8 11 18 18 17 18 20 16 16 20 9 247 216 209 209 210 209 209 209 210 210 210 210 210 212 212 213 215 217 217 218 218 220 221 225 227 228 230 235 239 245 249 251
3 4 7 11 15 19 19 19 20 21 18 21 27 30 183 202 207 209 209 207 209 209 209 209 209 208 209 211 210 212 213 215 215 218 218 219 223 226 229 231 236 239 244 250 254
5 5 7 11 13 17 20 21 22 22 22 26 33 30 40 200 202 205 207 208 207 208 208 208 207 206 206 208 208 210 212 214 214 216 217 219 224 226 229 233 236 240 246 249 252
3 6 8 10 12 16 20 22 23 23 23 26 32 36 31 127 202 202 202 206 207 207 207 207 206 206 205 206 207 209 212 212 214 216 218 220 224 225 227 234 237 241 245 250 254
2 4 7 10 11 15 18 23 24 26 25 30 30 36 36 42 141 189 195 200 205 205 205 204 205 205 205 205 206 208 210 212 214 216 218 222 226 226 229 234 237 243 247 251 256
2 3 6 9 11 14 16 21 24 25 27 30 35 37 41 43 62 152 187 192 197 200 200 202 203 205 204 203 205 208 209 212 213 215 218 222 227 230 232 237 242 246 250 254 259
4 5 3 7 10 13 16 18 22 24 28 29 33 37 43 44 46 67 149 189 191 193 196 197 200 202 203 203 204 207 209 212 215 217 219 223 227 234 235 238 243 248 252 256 260
6 4 1 4 9 12 15 16 20 23 26 30 32 37 40 43 46 55 96 150 180 186 191 194 197 200 202 201 204 207 209 213 217 220 220 225 229 235 240 243 246 251 255 259 262
5 5 5 3 4 8 14 15 18 21 26 27 31 34 37 42 45 53 67 113 155 177 185 190 194 198 199 201 203 207 210 213 219 222 222 227 230 236 242 246 249 253 258 261 263
355 2 2 1 2 2 7 13 16 22 25 28 29 34 36 38 44 49 58 75 132 164 177 186 191 194 196 199 202 207 210 214 218 222 223 226 231 235 242 247 251 255 258 263 266
356 355 2 358 356 358 360 8 13 17 23 29 31 32 35 39 41 48 53 60 90 149 175 185 189 192 195 198 202 206 212 215 220 226 226 228 233 238 243 247 252 256 261 265 267
347 353 354 356 351 351 354 358 6 12 18 24 32 32 32 36 41 44 51 57 67 119 165 181 187 191 194 198 203 208 213 217 222 228 230 231 236 242 246 250 254 258 263 267 270
332 341 349 352 355 351 346 349 355 5 10 19 23 33 35 35 38 42 48 54 69 88 155 180 185 190 195 199 204 209 216 222 226 233 234 235 240 244 248 252 256 260 264 267 271
329 327 338 346 352 351 349 347 345 349 2 8 16 23 36 37 36 43 44 50 55 75 125 175 187 191 196 201 207 213 219 224 230 239 240 240 243 246 251 256 260 263 266 270 272
324 316 322 329 334 344 343 342 341 338 342 355 2 11 19 33 40 39 47 49 52 64 77 151 189 197 200 206 211 217 222 227 234 241 244 246 248 251 255 260 264 266 268 270 272
310 320 309 315 326 333 339 338 333 331 330 333 343 351 2 11 25 34 47 48 56 59 70 97 157 200 211 217 219 224 231 236 241 246 250 252 256 260 262 265 266 267 269 270 272
299 299 314 300 312 319 322 323 323 324 320 320 323 334 337 347 2 9 20 45 50 62 73 75 91 151 203 220 229 237 243 248 251 254 257 260 263 265 267 266 267 269 271 273 275
289 289 295 300 301 305 313 311 312 319 315 310 308 315 319 322 327 330 343 349 356 28 72 71 85 103 144 193 218 230 239 246 250 254 256 259 262 264 265 268 271 273 277 281 284
Height
10660 10642 10621 10602 10583 10567 10552 10539 10531 10527 10524 10525 10528 10537 10550 10565 10582 10597 10609 10626 10642 10660 10674 10685 10697 10708 10721 10734 10743 10752 10762 10770 10776 10781 10786 10792 10797 10802 10806 10810 10813 10817 10820 10823 10825
10651 10630 10606 10585 10567 10549 10535 10523 10515 10507 10503 10500 10503 10510 10523 10540 10556 10572 10593 10608 10625 10642 10659 10671 10683 10695 10709 10722 10731 10744 10757 10762 10767 10773 10779 10785 10790 10795 10799 10803 10807 10811 10814 10816 10819
10642 10622 10597 10571 10552 10535 10520 10508 10499 10492 10486 10482 10482 10487 10498 10511 10529 10553 10568 10587 10606 10623 10641 10656 10669 10683 10697 10711 10722 10737 10749 10750 10757 10766 10773 10777 10783 10787 10792 10797 10802 10804 10807 10811 10813
10635 10615 10591 10565 10542 10522 10508 10495 10485 10478 10471 10468 10467 10471 10479 10489 10508 10530 10548 10568 10589 10607 10623 10639 10655 10670 10685 10701 10713 10726 10735 10741 10749 10758 10764 10770 10776 10780 10785 10791 10795 10798 10802 10805 10807
10630 10610 10586 10561 10538 10516 10499 10486 10475 10466 10459 10456 10455 10459 10465 10475 10490 10508 10530 10550 10569 10590 10606 10623 10640 10656 10670 10688 10702 10714 10724 10731 10740 10749 10756 10763 10768 10774 10779 10785 10789 10793 10797 10799 10801
10627 10608 10584 10562 10537 10514 10496 10479 10467 10457 10450 10446 10446 10448 10455 10464 10474 10492 10511 10531 10553 10572 10589 10608 10626 10644 10659 10676 10690 10704 10712 10721 10730 10741 10748 10755 10762 10768 10774 10779 10784 10787 10791 10792 10794
10624 10606 10586 10562 10538 10516 10495 10478 10461 10452 10443 10439 10439 10441 10446 10454 10464 10478 10495 10516 10537 10557 10576 10596 10614 10632 10652 10664 10680 10694 10702 10713 10723 10733 10741 10749 10756 10763 10768 10772 10777 10781 10784 10785 10787
10622 10605 10586 10564 10540 10517 10496 10477 10462 10450 10441 10436 10434 10436 10441 10446 10455 10467 10483 10503 10520 10541 10561 10582 10602 10619 10638 10656 10668 10683 10693 10706 10719 10727 10735 10743 10749 10755 10760 10766 10771 10774 10776 10779 10780
10622 10606 10587 10568 10545 10521 10499 10480 10463 10451 10442 10435 10432 10433 10436 10441 10448 10459 10473 10489 10508 10529 10549 10569 10589 10609 10628 10643 10658 10672 10689 10703 10713 10722 10729 10737 10742 10748 10753 10760 10764 10768 10770 10771 10774
10623 10608 10590 10573 10550 10527 10506 10487 10468 10455 10444 10437 10432 10432 10433 10438 10444 10453 10465 10479 10496 10515 10535 10556 10578 10599 10617 10633 10658 10673 10685 10695 10705 10715 10722 10730 10734 10739 10745 10752 10757 10761 10763 10764 10767
10626 10611 10594 10577 10558 10538 10516 10494 10475 10463 10451 10441 10436 10434 10434 10437 10441 10448 10457 10469 10484 10503 10523 10545 10568 10593 10610 10627 10642 10658 10669 10682 10693 10705 10713 10721 10725 10731 10738 10746 10750 10753 10755 10757 10760
10628 10614 10598 10581 10564 10547 10528 10505 10485 10471 10459 10448 10441 10438 10437 10437 10439 10444 10452 10463 10475 10490 10510 10534 10559 10577 10596 10615 10632 10646 10658 10671 10683 10694 10704 10713 10719 10725 10733 10738 10742 10745 10747 10750 10752
10630 10617 10603 10587 10571 10555 10537 10518 10497 10480 10466 10453 10446 10441 10439 10438 10438 10441 10447 10457 10468 10483 10501 10525 10547 10569 10587 10606 10625 10639 10653 10666 10680 10689 10700 10706 10711 10720 10727 10731 10735 10738 10739 10741 10742
10632 10621 10608 10595 10580 10563 10548 10531 10513 10495 10479 10465 10453 10446 10441 10440 10440 10441 10447 10456 10466 10480 10497 10518 10541 10560 10581 10601 10618 10632 10648 10660 10673 10683 10694 10700 10708 10714 10721 10724 10727 10729 10730 10732 10732
10634 10624 10613 10600 10587 10572 10558 10543 10527 10511 10496 10479 10466 10458 10450 10447 10446 10447 10451 10457 10465 10476 10492 10512 10534 10556 10578 10597 10613 10629 10644 10655 10666 10676 10686 10693 10700 10709 10714 10717 10718 10719 10721 10723 10724
10637 10627 10617 10606 10594 10582 10569 10555 10539 10526 10507 10493 10479 10469 10462 10458 10455 10454 10457 10461 10467 10476 10490 10507 10528 10552 10573 10593 10609 10624 10638 10650 10660 10669 10679 10689 10697 10702 10706 10708 10709 10711 10713 10715 10716
10639 10631 10621 10612 10601 10591 10579 10568 10555 10541 10525 10509 10495 10483 10474 10469 10466 10464 10464 10467 10473 10480 10492 10508 10528 10549 10571 10591 10607 10622 10635 10647 10656 10665 10680 10686 10692 10697 10696 10700 10701 10703 10705 10706 10706
10640 10633 10625 10617 10608 10598 10590 10580 10569 10555 10540 10527 10513 10500 10489 10483 10477 10475 10475 10477 10481 10488 10498 10512 10530 10550 10571 10591 10607 10621 10633 10645 10657 10667 10676 10679 10687 10689 10687 10688 10691 10693 10695 10696 10696
10641 10635 10628 10620 10613 10606 10598 10589 10580 10568 10557 10545 10532 10520 10509 10500 10493 10489 10488 10490 10494 10500 10508 10520 10534 10552 10573 10590 10606 10619 10632 10643 10653 10660 10666 10673 10678 10679 10677 10678 10680 10682 10684 10686 10686
10643 10636 10630 10624 10617 10611 10604 10597 10588 10580 10571 10561 10551 10540 10529 10520 10512 10506 10505 10505 10508 10513 10520 10530 10542 10558 10576 10593 10607 10620 10630 10641 10649 10656 10661 10666 10669 10669 10667 10668 10670 10673 10675 10676 10675
10642 10638 10632 10626 10620 10614 10609 10603 10597 10590 10583 10575 10567 10558 10549 10540 10532 10526 10522 10521 10523 10526 10531 10540 10551 10565 10581 10596 10608 10619 10629 10638 10644 10651 10654 10658 10660 10658 10659 10660 10662 10664 10665 10664 10662
10641 10637 10633 10628 10623 10618 10613 10608 10603 10598 10592 10586 10580 10573 10566 10558 10551 10545 10541 10538 10537 10540 10545 10551 10560 10574 10588 10600 10610 10619 10627 10635 10641 10645 10648 10650 10651 10647 10648 10650 10654 10655 10655 10653 10651
10641 10636 10632 10630 10625 10621 10616 10612 10606 10601 10599 10594 10590 10585 10579 10573 10567 10562 10558 10555 10553 10554 10557 10563 10572 10581 10592 10602 10611 10618 10624 10630 10636 10639 10641 10642 10639 10635 10640 10643 10645 10644 10643 10641 10637
10638 10635 10630 10626 10624 10621 10618 10613 10610 10606 10602 10599 10596 10593 10589 10586 10581 10576 10572 10569 10568 10567 10569 10573 10579 10586 10595 10603 10610 10616 10621 10626 10630 10631 10630 10631 10626 10627 10632 10634 10634 10631 10627 10623 10620
10634 10630 10627 10624 10620 10618 10617 10614 10611 10607 10605 10601 10599 10597 10594 10592 10591 10587 10585 10582 10580 10579 10579 10581 10585 10592 10599 10605 10609 10614 10617 10620 10621 10621 10622 10615 10617 10620 10622 10622 10619 10614 10610 10606 10603
10628 10625 10622 10620 10618 10614 10613 10611 10608 10606 10604 10602 10599 10598 10596 10595 10593 10593 10592 10591 10589 10588 10588 10589 10590 10593 10598 10602 10606 10608 10610 10612 10612 10612 10610 10610 10605 10607 10609 10605 10602 10597 10593 10590 10585
10620 10618 10616 10614 10612 10610 10609 10606 10604 10602 10600 10598 10597 10596 10595 10594 10593 10592 10591 10592 10593 10592 10592 10592 10593 10595 10597 10599 10600 10601 10602 10601 10602 10600 10599 10597 10594 10592 10591 10589 10586 10583 10579 10575 10571